Location: Poigny-la-Forêt
(48.6876°N, 1.7701°E)
Time: 00:41:38
(UTC+02:00)

Envisat - Pass Details

Date: 04 April 2019
Orbit: 764 x 766 km, 98.2° (Epoch: 24 April)

Event Time Altitude Azimuth Distance (km) Brightness Sun altitude
Rises 20:55:48 0° 184° (S) 3,220 6.1 -5.4°
Reaches altitude 10° 20:58:13 10° 192° (SSW) 2,298 5.5 -5.8°
Maximum altitude 21:03:00 42° 263° (W) 1,093 4.5 -6.5°
Drops below altitude 10° 21:07:50 10° 333° (NNW) 2,314 6.2 -7.3°
Sets 21:10:17 0° 341° (NNW) 3,244 6.8 -7.7°
